Location: Street
(51.1247°N, 2.7429°W)
Time: 08:37:32
(UTC+01:00)

PCSat - Pass Details

Date: 02 April 2023
Orbit: 783 x 794 km, 67.1° (Epoch: 29 May)

Event Time Altitude Azimuth Distance (km) Brightness Sun altitude
Rises 21:49:14 0° 317° (NW) 3,299 14.3 -18.8°
Reaches altitude 10° 21:52:22 10° 335° (NNW) 2,370 12.9 -19.2°
Maximum altitude 21:56:14 19° 21° (NNE) 1,810 11.6 -19.7°
Enters shadow 21:59:42 11° 63° (ENE) 2,274 11.7 -20.1°
